• In Lithuania
  • List of Countries
  • For 7 days
  • Water Temperature
  • Satellite Maps
  • Weather Map
  • Weather Widgets
  • user-avatar
    Login

    Hourly Weather Lidinka

    Today, 20 June, Wednesday

    Time Temperature Precipitation Wind Pressure Humidity
    00:00 +18°C° 0 mm 3 mps 742 mmHg 91%
    01:00 +18°C° 0 mm 3 mps 741 mmHg 92%
    02:00 +18°C° 0 mm 3 mps 741 mmHg 93%
    03:00 +18°C° 0 mm 3 mps 740 mmHg 94%
    04:00 +18°C° 0.2 mm 3 mps 741 mmHg 93%
    05:00 +18°C° 0.2 mm 4 mps 741 mmHg 92%
    06:00 +19°C° 0.2 mm 4 mps 741 mmHg 92%
    07:00 +19°C° 0 mm 5 mps 741 mmHg 87%
    08:00 +20°C° 0 mm 5 mps 741 mmHg 81%
    09:00 +21°C° 0 mm 5 mps 741 mmHg 74%
    10:00 +22°C° 0 mm 6 mps 741 mmHg 71%
    11:00 +22°C° 0 mm 6 mps 741 mmHg 67%
    12:00 +22°C° 0 mm 7 mps 741 mmHg 64%
    13:00 +22°C° 0 mm 7 mps 742 mmHg 63%
    14:00 +22°C° 0 mm 7 mps 742 mmHg 62%
    15:00 +22°C° 0 mm 6 mps 742 mmHg 62%
    16:00 +22°C° 0 mm 6 mps 742 mmHg 64%
    17:00 +22°C° 0 mm 5 mps 742 mmHg 67%
    18:00 +22°C° 0 mm 4 mps 742 mmHg 69%
    19:00 +20°C° 0 mm 4 mps 742 mmHg 72%
    20:00 +19°C° 0 mm 4 mps 742 mmHg 74%
    21:00 +17°C° 0 mm 4 mps 742 mmHg 77%
    22:00 +17°C° 0 mm 4 mps 742 mmHg 79%
    23:00 +15°C° 0 mm 4 mps 743 mmHg 80%

    Tomorrow, 21 June, Thursday

    Time Temperature Precipitation Wind Pressure Humidity
    00:00 +14°C° 0 mm 4 mps 743 mmHg 82%
    01:00 +14°C° 0 mm 4 mps 743 mmHg 84%
    02:00 +13°C° 0 mm 3 mps 743 mmHg 87%
    03:00 +13°C° 0 mm 3 mps 743 mmHg 89%
    04:00 +13°C° 0 mm 3 mps 743 mmHg 88%
    05:00 +13°C° 0 mm 3 mps 743 mmHg 87%
    06:00 +14°C° 0 mm 4 mps 743 mmHg 86%
    07:00 +15°C° 0 mm 4 mps 743 mmHg 80%
    08:00 +18°C° 0 mm 4 mps 744 mmHg 75%
    09:00 +19°C° 0 mm 4 mps 744 mmHg 70%
    10:00 +20°C° 0 mm 4 mps 744 mmHg 66%
    11:00 +21°C° 0 mm 4 mps 743 mmHg 63%
    12:00 +22°C° 0 mm 5 mps 743 mmHg 60%
    13:00 +23°C° 0 mm 5 mps 743 mmHg 60%
    14:00 +23°C° 0 mm 5 mps 743 mmHg 61%
    15:00 +25°C° 0 mm 5 mps 743 mmHg 62%
    16:00 +25°C° 0 mm 4 mps 743 mmHg 64%
    17:00 +25°C° 0 mm 4 mps 743 mmHg 67%
    18:00 +24°C° 0 mm 3 mps 742 mmHg 70%
    19:00 +22°C° 0 mm 3 mps 742 mmHg 75%
    20:00 +20°C° 0 mm 3 mps 742 mmHg 80%
    21:00 +19°C° 0 mm 2 mps 743 mmHg 86%
    22:00 +18°C° 0 mm 2 mps 743 mmHg 87%
    23:00 +17°C° 0 mm 2 mps 743 mmHg 89%

    Day after tomorrow, 22 June, Friday

    Time Temperature Precipitation Wind Pressure Humidity
    00:00 +17°C° 0 mm 2 mps 743 mmHg 91%
    01:00 +16°C° 0 mm 2 mps 743 mmHg 91%
    02:00 +16°C° 0 mm 2 mps 743 mmHg 91%
    03:00 +16°C° 0 mm 2 mps 743 mmHg 92%
    04:00 +16°C° 0 mm 2 mps 743 mmHg 91%
    05:00 +17°C° 0 mm 2 mps 743 mmHg 90%
    06:00 +17°C° 0 mm 3 mps 742 mmHg 89%
    07:00 +19°C° 0 mm 3 mps 742 mmHg 84%
    08:00 +21°C° 0 mm 4 mps 742 mmHg 79%
    09:00 +22°C° 0 mm 4 mps 742 mmHg 74%
    10:00 +23°C° 0 mm 5 mps 742 mmHg 71%
    11:00 +25°C° 0 mm 5 mps 742 mmHg 69%
    12:00 +26°C° 0 mm 5 mps 742 mmHg 66%
    13:00 +27°C° 0 mm 5 mps 741 mmHg 65%
    14:00 +27°C° 0 mm 5 mps 741 mmHg 65%
    15:00 +28°C° 0 mm 5 mps 741 mmHg 64%
    16:00 +28°C° 0 mm 5 mps 740 mmHg 67%
    17:00 +27°C° 0 mm 4 mps 740 mmHg 70%
    18:00 +27°C° 0 mm 4 mps 740 mmHg 73%
    19:00 +26°C° 0 mm 4 mps 740 mmHg 77%
    20:00 +23°C° 0 mm 4 mps 740 mmHg 82%
    21:00 +22°C° 0 mm 3 mps 740 mmHg 87%
    22:00 +21°C° 0 mm 3 mps 740 mmHg 88%
    23:00 +20°C° 0 mm 3 mps 740 mmHg 90%

    23 June, Saturday

    Time Temperature Precipitation Wind Pressure Humidity
    00:00 +19°C° 0 mm 3 mps 740 mmHg 92%
    01:00 +19°C° 0 mm 3 mps 740 mmHg 92%
    02:00 +18°C° 0 mm 3 mps 740 mmHg 93%
    03:00 +18°C° 0 mm 3 mps 740 mmHg 93%
    04:00 +18°C° 0 mm 3 mps 740 mmHg 91%
    05:00 +19°C° 0 mm 3 mps 740 mmHg 90%
    06:00 +19°C° 0 mm 3 mps 740 mmHg 88%
    07:00 +21°C° 0 mm 3 mps 740 mmHg 84%
    08:00 +22°C° 0 mm 4 mps 740 mmHg 79%
    09:00 +23°C° 0 mm 4 mps 739 mmHg 75%
    10:00 +25°C° 0.3 mm 5 mps 739 mmHg 71%
    11:00 +26°C° 0.3 mm 5 mps 739 mmHg 67%
    12:00 +28°C° 0.3 mm 6 mps 739 mmHg 63%
    13:00 +28°C° 0.4 mm 6 mps 738 mmHg 62%
    14:00 +28°C° 0.4 mm 6 mps 738 mmHg 61%
    15:00 +29°C° 0.4 mm 6 mps 738 mmHg 61%
    16:00 +28°C° 0.7 mm 6 mps 737 mmHg 66%
    17:00 +27°C° 0.7 mm 6 mps 737 mmHg 71%
    18:00 +26°C° 0.7 mm 5 mps 737 mmHg 77%
    19:00 +25°C° 1.1 mm 5 mps 737 mmHg 81%
    20:00 +22°C° 1.1 mm 4 mps 737 mmHg 85%
    21:00 +20°C° 1.1 mm 3 mps 738 mmHg 90%
    22:00 +19°C° 1 mm 3 mps 738 mmHg 92%
    23:00 +18°C° 1 mm 3 mps 738 mmHg 94%

    24 June, Sunday

    Time Temperature Precipitation Wind Pressure Humidity
    00:00 +16°C° 1 mm 3 mps 738 mmHg 96%
    01:00 +14°C° 1.3 mm 4 mps 738 mmHg 96%
    02:00 +14°C° 1.3 mm 4 mps 738 mmHg 96%
    03:00 +13°C° 1.3 mm 5 mps 738 mmHg 95%
    04:00 +12°C° 1.2 mm 5 mps 739 mmHg 95%
    05:00 +12°C° 1.2 mm 5 mps 739 mmHg 95%
    06:00 +10°C° 1.2 mm 5 mps 740 mmHg 94%
    07:00 +12°C° 0.1 mm 5 mps 740 mmHg 92%
    08:00 +12°C° 0.1 mm 5 mps 740 mmHg 89%
    09:00 +13°C° 0.1 mm 5 mps 741 mmHg 87%
    10:00 +14°C° 0 mm 5 mps 741 mmHg 81%
    11:00 +16°C° 0 mm 5 mps 742 mmHg 74%
    12:00 +19°C° 0 mm 5 mps 742 mmHg 68%
    13:00 +19°C° 0 mm 5 mps 742 mmHg 66%
    14:00 +20°C° 0 mm 5 mps 743 mmHg 64%
    15:00 +21°C° 0 mm 4 mps 743 mmHg 61%
    16:00 +21°C° 0 mm 4 mps 743 mmHg 63%
    17:00 +21°C° 0 mm 3 mps 743 mmHg 64%
    18:00 +21°C° 0 mm 3 mps 743 mmHg 66%
    19:00 +19°C° 0 mm 2 mps 743 mmHg 71%
    20:00 +17°C° 0 mm 2 mps 744 mmHg 76%
    21:00 +16°C° 0 mm 2 mps 744 mmHg 82%
    22:00 +15°C° 0 mm 2 mps 744 mmHg 83%
    23:00 +14°C° 0 mm 2 mps 744 mmHg 85%

    25 June, Monday

    Time Temperature Precipitation Wind Pressure Humidity
    00:00 +14°C° 0 mm 2 mps 744 mmHg 87%
    01:00 +13°C° 0 mm 2 mps 744 mmHg 88%
    02:00 +13°C° 0 mm 2 mps 744 mmHg 89%
    03:00 +12°C° 0 mm 2 mps 745 mmHg 91%
    04:00 +13°C° 0 mm 2 mps 745 mmHg 90%
    05:00 +13°C° 0 mm 2 mps 745 mmHg 88%
    06:00 +14°C° 0 mm 2 mps 745 mmHg 87%
    07:00 +15°C° 0 mm 2 mps 745 mmHg 82%
    08:00 +17°C° 0 mm 2 mps 745 mmHg 77%
    09:00 +19°C° 0 mm 3 mps 745 mmHg 72%
    10:00 +20°C° 0 mm 3 mps 745 mmHg 68%
    11:00 +21°C° 0 mm 3 mps 745 mmHg 64%
    12:00 +21°C° 0 mm 3 mps 745 mmHg 60%
    13:00 +22°C° 0.2 mm 3 mps 745 mmHg 60%
    14:00 +22°C° 0.2 mm 3 mps 745 mmHg 60%
    15:00 +22°C° 0.2 mm 3 mps 745 mmHg 60%
    16:00 +22°C° 0.2 mm 3 mps 745 mmHg 63%
    17:00 +22°C° 0.2 mm 3 mps 745 mmHg 67%
    18:00 +21°C° 0.2 mm 3 mps 745 mmHg 70%
    19:00 +20°C° 0.1 mm 3 mps 745 mmHg 75%
    20:00 +18°C° 0.1 mm 2 mps 745 mmHg 79%
    21:00 +16°C° 0.1 mm 2 mps 745 mmHg 84%
    22:00 +16°C° 0 mm 2 mps 745 mmHg 86%
    23:00 +15°C° 0 mm 2 mps 745 mmHg 88%
    Show more